Regional Weather Roundup
Issued by NWS

Home | Current Version | Previous Version | Graphics & Text | Print | Product List | Glossary On
Versions: 1 2 3 4 5 6 7 8 9 10 11 12 13 14 15 16 17 18 19 20 21 22 23 24 25 26 27 28 29 30 31 32 33 34 35 36 37 38 39 40 41 42 43 44 45 46 47 48 49 50
387
ASUS43 KBIS 180902
RWRND

NORTH DAKOTA REGIONAL WEATHER ROUNDUP
NATIONAL WEATHER SERVICE BISMARCK ND
400 AM CDT WED OCT 18 2017

NOTE: "FAIR" INDICATES FEW OR NO CLOUDS BELOW 12,000 FEET WITH NO
SIGNIFICANT WEATHER AND/OR OBSTRUCTIONS TO VISIBILITY.


NDZ001>003-009>011-017-181000-
NORTHWEST NORTH DAKOTA

CITY           SKY/WX    TMP DP  RH WIND       PRES   REMARKS
WILLISTON      CLOUDY    51  35  54 W15G24    29.76R
MINOT          PTCLDY    59  31  34 W22G38    29.60R
MINOT AFB      CLOUDY    58  33  39 W24G33    29.57R
$$

NDZ018>021-031>035-040>046-181000-
SOUTHWEST NORTH DAKOTA

CITY           SKY/WX    TMP DP  RH WIND       PRES   REMARKS
BISMARCK       PTCLDY    53  28  38 SW5       29.65R
DICKINSON      CLOUDY    61  26  26 N29G40    29.72R
GARRISON         N/A     59  32  36 NW28G38   29.65R
HETTINGER ARPT CLOUDY    54  25  32 NW13      29.75R
$$

NDZ004>008-012>016-024-026-027-054-181000-
NORTHEAST NORTH DAKOTA

CITY           SKY/WX    TMP DP  RH WIND       PRES   REMARKS
GRAND FORKS    CLOUDY    54  40  59 S14       29.50F
GRND FRKS AFB  CLOUDY    59  37  45 SW15      29.49F
DEVILS LAKE    PTCLDY    61  32  33 W21G28    29.54R
$$

NDZ022-023-025-028>030-036>039-047>053-181000-
SOUTHEAST NORTH DAKOTA

CITY           SKY/WX    TMP DP  RH WIND       PRES   REMARKS
FARGO          CLOUDY    53  41  63 S14       29.62F
JAMESTOWN      PTCLDY    50  36  58 S10       29.58F
$$





USA.gov is the U.S. government's official web portal to all federal, state and local government web resources and services.